Weather in Sariasiya

Uzbekistan     39°07′29″N   66°58′02″E
temp.,
°C
wind,
m/s
gust,
m/s
humid.,
%
clouds,
%
prec.,
mm/h
press.,
hPa
HPBL,
m
17 april, sat
sat1723:00+13ese22440 0.0 101713
02:00+12ese22430 0.0 101714
05:00+12ese224042 0.0 101714
08:00+16ese113736 0.0 1018112
11:00+19wnw323092 0.0 10171025
14:00+20w543150 0.0 10161329
17:00+19wsw3330100 0.1 10161456
20:00+15se2244100 0.0 101821
18 april, sun
sun1823:00+14se114499 0.0 101811
02:00+11e116197 0.1 101911
05:00+11ene1157100 0.2 102013
08:00+13ene125081 0.0 1022335
11:00+17nw333813 0.1 10211876
14:00+19wnw433461 0.2 10202359
17:00+19w333656 0.2 10191833
20:00+14sse1146100 0.0 102011
19 april, mon
mon1923:00+13se2248100 0.0 101916
02:00+13ese334715 0.0 101827
05:00+12ese334857 0.0 101833
08:00+16ese224167 0.0 1017157
11:00+20nw322958 0.0 10151691
14:00+21wnw43295 0.0 10131990
17:00+21wnw323121 0.0 10121233
20:00+16sse1144100 0.0 101311
20 april, tue
tue2023:00+15se2244100 0.0 101211
02:00+14se224664 0.0 101112
05:00+13se225044 0.0 101112
08:00+17sse1244100 0.0 1012213
11:00+17w6537100 0.0 10131235
14:00+17sw1336100 0.0 10121300
17:00+17wnw2341100 0.0 10101167
20:00+13sw2262100 0.3 101163
21 april, wed
wed2123:00+10wsw129391 3.4 1014151
02:00+9w239796 2.3 1014292
05:00+9wsw359780 4.2 1015381
08:00+9w348650 0.8 1017463
11:00+12w446327 1.9 10181138
14:00+15w444742 0.3 10171945
17:00+14wnw44468 0.4 10171876
20:00+10s01634 0.0 101810